Вернуться в каталог

COSMOS 2302

АктивенВоенныеPO
NORAD 23444·PAYLOAD·🇷🇺 Russia

Запущен Dec 26, 1994 с Plesetsk Cosmodrome

Loading…

Ближайшие Пролёты (ближайшие 24 часа)

TLE

СвежийSource: Space-Track

Эпоха: Sep 14, 2026, 01:22 UTC

1 23444U 94086D   26257.05753995  .00000005  00000-0 -33269-4 0  9992
2 23444  82.5602 270.5927 0006861 352.9365  33.3845 12.61274719460026

Отслеживайте COSMOS 2302 в реальном времени с AllMySat

Download on the App Store